map of PLL home
Great Circle Mapper logo
PLL - Airport
Location
City:  Manaus, Amazonas, Brazil
Name:Manaus AFB
Old (Alt.):Ponta Pelada Airport
ICAO / IATA:SBMN / PLL

Details
Type:Airport (Aerodrome, Airfield)
Use:Military
Latitude:308'46"S (-3.146041)
Longitude:5959'11"W (-59.986299)
Datum:WGS 1984
Elevation:267 ft (81 m)
Variation:15.51W (WMM2015 magnetic declination)
-0.12 annual change
Runways:1
Longest:7605 × 148 ft (2318 × 45 m), paved

Time
Time Zone:UTC-4
Local Time:

Weather
METAR:SBMN 051200Z 06008KT CAVOK 29/22 Q1014
TAF:SBMN 050400Z 0506/0606 09003KT CAVOK TN25/0507Z TX32/0517Z
BECMG 0511/0513 12005KT
BECMG 0516/0518 15008KT SCT020 FEW025TCU
BECMG 0519/0521 11005KT
BECMG 0522/0524 09003KT CAVOK
RMK PEH

Related Locations
Nearby:
Farthest:SMM: 12307 mi / 19806 km
Semporna, Sabah, MY

Find:

   beyond  
but within

Other Information
Maps:
NOTAMs:
Links:
Sources:

  
flag of Brazil
flag of Amazonas
flag of Manaus
  

Sectional Chart

Flight Planning
at skyvector.com

Satellite Image

Google Maps Satellite view

 

Copyright © 2004-2015 Karl L. Swartz. All rights reserved.
The Great Circle Mapper name and logo are trademarks of the Great Circle Mapper.
All other trademarks mentioned herein belong to their respective owners.
Please see credits for attibutions and further copyright information.

  Follow gcmap on Facebook Follow gcmap on Twitter Follow gcmap on Google+

hCard Microformat

Geo Microformat